Weather History for Angel Fire, NM

Change the Weather History Date:

Thursday, October 24, 2013

  Actual Average (KSKX) Record (KSKX)
Temperature  
Mean Temperature 38 °F -  
Max Temperature 60 °F 56 °F 73 °F (2014)
Min Temperature 17 °F 26 °F 19 °F (1996)
Degree Days  
Heating Degree Days 26    
Moisture  
Dew Point 22 °F    
Average Humidity 61    
Maximum Humidity 91    
Minimum Humidity 17    
Precipitation  
Precipitation 0.00 in - - ()
Sea Level Pressure  
Sea Level Pressure 30.37 in    
Wind  
Wind Speed 2 mph (SW)    
Max Wind Speed 15 mph    
Max Gust Speed 20 mph    
Visibility 10 miles    
Events      
Averages and records for this station are not official NWS values.
T = Trace of Precipitation, MM = Missing Value Source: NWS Daily Summary

Daily Weather History Graph

Daily Weather History Graph

Search for Another Location

Airport:

Trip Planner

Search our weather history database for the weather conditions in past years. The results will help you decide how hot, cold, wet, or windy it might be!

Date:

Astronomy

Oct. 24, 2013 Rise Set
Actual Time 7:16 AM MDT 6:13 PM MDT
Civil Twilight 6:50 AM MDT 6:39 PM MDT
Nautical Twilight 6:20 AM MDT 7:09 PM MDT
Astronomical Twilight 5:50 AM MDT 7:39 PM MDT
Moon 10:43 PM MDT (10/24) 12:15 PM MDT (10/24)
Length of Visible Light 11h 48m
Length of Day
10h 56m
Waning Gibbous, 70% of the Moon is Illuminated
Oct 24
Waning Gibbous
Oct 26
Last Quarter
Nov 3
New
Nov 9
First Quarter
Nov 17
Full

Hourly Weather History & Observations

Time (MDT) Temp. Windchill Dew Point Humidity Pressure Visibility Wind Dir Wind Speed Gust Speed Precip Events Conditions
12:15 AM 24.6 °F - 21.0 °F 86% 30.37 in 10.0 mi Calm Calm - N/A   Clear
12:35 AM 24.3 °F - 20.1 °F 84% 30.37 in 10.0 mi Calm Calm - N/A   Clear
12:55 AM 22.8 °F - 19.4 °F 87% 30.37 in 10.0 mi Calm Calm - N/A   Clear
1:15 AM 24.3 °F - 20.3 °F 85% 30.37 in 10.0 mi Calm Calm - N/A   Clear
1:35 AM 23.9 °F - 20.7 °F 87% 30.38 in 10.0 mi Calm Calm - N/A   Clear
1:55 AM 23.9 °F - 20.3 °F 86% 30.38 in 10.0 mi Calm Calm - N/A   Clear
2:15 AM 21.7 °F - 18.7 °F 88% 30.37 in 10.0 mi Calm Calm - N/A   Clear
2:35 AM 23.0 °F - 20.1 °F 89% 30.37 in 10.0 mi Calm Calm - N/A   Clear
2:55 AM 22.1 °F - 19.2 °F 89% 30.37 in 10.0 mi Calm Calm - N/A   Clear
3:15 AM 21.9 °F - 19.4 °F 90% 30.37 in 10.0 mi Calm Calm - N/A   Clear
3:35 AM 23.7 °F - 20.3 °F 87% 30.37 in 10.0 mi Calm Calm - N/A   Clear
3:55 AM 19.8 °F - 17.2 °F 90% 30.36 in 10.0 mi Calm Calm - N/A   Clear
4:15 AM 21.0 °F - 18.7 °F 91% 30.37 in 10.0 mi Calm Calm - N/A   Clear
4:35 AM 21.2 °F - 18.3 °F 89% 30.37 in 10.0 mi Calm Calm - N/A   Clear
4:55 AM 18.7 °F - 16.0 °F 89% 30.37 in 10.0 mi Calm Calm - N/A   Clear
5:15 AM 18.7 °F - 16.3 °F 91% 30.37 in 10.0 mi Calm Calm - N/A   Clear
5:35 AM 19.9 °F - 17.1 °F 89% 30.38 in 10.0 mi Calm Calm - N/A   Clear
5:55 AM 18.7 °F - 14.7 °F 85% 30.38 in 10.0 mi Calm Calm - N/A   Clear
6:15 AM 18.1 °F - 15.6 °F 90% 30.38 in 10.0 mi Calm Calm - N/A   Clear
6:35 AM 19.2 °F - 16.7 °F 90% 30.38 in 10.0 mi Calm Calm - N/A   Clear
6:55 AM 18.7 °F - 15.6 °F 88% 30.39 in 10.0 mi Calm Calm - N/A   Clear
7:15 AM 17.6 °F - 14.9 °F 89% 30.39 in 10.0 mi Calm Calm - N/A   Clear
7:35 AM 17.8 °F - 15.1 °F 89% 30.40 in 10.0 mi Calm Calm - N/A   Clear
7:55 AM 17.8 °F - 15.3 °F 90% 30.41 in 10.0 mi Calm Calm - N/A   Clear
8:15 AM 22.5 °F - 19.8 °F 89% 30.41 in 7.0 mi Calm Calm - N/A   Clear
8:35 AM 27.0 °F - 23.7 °F 88% 30.41 in 10.0 mi Calm Calm - N/A   Clear
8:55 AM 30.2 °F - 25.3 °F 82% 30.41 in 10.0 mi Calm Calm - N/A   Clear
9:15 AM 32.9 °F - 26.1 °F 76% 30.41 in 10.0 mi Calm Calm - N/A   Clear
9:35 AM 36.0 °F - 26.1 °F 67% 30.41 in 10.0 mi Calm Calm - N/A   Clear
9:55 AM 37.6 °F - 27.1 °F 66% 30.40 in 10.0 mi Calm Calm - N/A   Clear
10:15 AM 38.8 °F - 26.8 °F 62% 30.40 in 10.0 mi Calm Calm - N/A   Clear
10:35 AM 43.3 °F - 26.8 °F 52% 30.40 in 10.0 mi Calm Calm - N/A   Clear
10:55 AM 45.5 °F - 28.2 °F 51% 30.39 in 10.0 mi Calm Calm - N/A   Clear
11:15 AM 50.0 °F - 29.8 °F 46% 30.38 in 10.0 mi Calm Calm - N/A   Clear
11:35 AM 54.9 °F - 26.8 °F 34% 30.37 in 10.0 mi Calm Calm - N/A   Clear
11:55 AM 57.4 °F - 22.1 °F 26% 30.37 in 10.0 mi Calm Calm - N/A   Clear
12:15 PM 59.0 °F - 20.1 °F 22% 30.36 in 10.0 mi West 11.5 mph - N/A   Clear
12:35 PM 59.4 °F - 20.7 °F 22% 30.35 in 10.0 mi West 9.2 mph - N/A   Clear
12:55 PM 59.5 °F - 20.1 °F 22% 30.34 in 10.0 mi WNW 10.4 mph - N/A   Clear
1:15 PM 59.9 °F - 19.9 °F 21% 30.33 in 10.0 mi WNW 10.4 mph 16.1 mph N/A   Clear
1:35 PM 60.1 °F - 19.8 °F 21% 30.33 in 10.0 mi West 9.2 mph 18.4 mph N/A   Clear
1:55 PM 60.3 °F - 19.4 °F 21% 30.32 in 10.0 mi West 10.4 mph 18.4 mph N/A   Clear
2:15 PM 60.1 °F - 18.0 °F 20% 30.31 in 10.0 mi West 11.5 mph 18.4 mph N/A   Clear
2:35 PM 60.4 °F - 17.8 °F 19% 30.31 in 10.0 mi WNW 11.5 mph 17.3 mph N/A   Clear
2:55 PM 60.6 °F - 18.3 °F 19% 30.31 in 10.0 mi WSW 10.4 mph - N/A   Clear
3:15 PM 60.6 °F - 16.9 °F 18% 30.31 in 10.0 mi West 10.4 mph - N/A   Clear
3:35 PM 60.3 °F - 17.1 °F 19% 30.31 in 10.0 mi WSW 8.1 mph - N/A   Clear
3:55 PM 60.4 °F - 15.1 °F 17% 30.30 in 10.0 mi WNW 8.1 mph - N/A   Clear
4:15 PM 59.9 °F - 16.3 °F 18% 30.30 in 10.0 mi West 10.4 mph - N/A   Clear
4:35 PM 59.7 °F - 17.1 °F 19% 30.30 in 10.0 mi SW 8.1 mph - N/A   Clear
4:55 PM 59.0 °F - 23.4 °F 25% 30.30 in 10.0 mi South 6.9 mph - N/A   Clear
5:15 PM 57.6 °F - 25.2 °F 29% 30.31 in 10.0 mi South 11.5 mph - N/A   Clear
5:35 PM 55.6 °F - 26.1 °F 32% 30.31 in 10.0 mi SSE 15.0 mph - N/A   Clear
5:55 PM 52.9 °F - 26.4 °F 36% 30.31 in 10.0 mi SSE 13.8 mph 18.4 mph N/A   Clear
6:15 PM 51.3 °F - 27.0 °F 39% 30.33 in 10.0 mi SSE 15.0 mph 19.6 mph N/A   Clear
6:35 PM 49.6 °F - 27.3 °F 42% 30.33 in 10.0 mi South 12.7 mph - N/A   Clear
6:55 PM 47.3 °F - 27.7 °F 47% 30.35 in 10.0 mi South 10.4 mph - N/A   Clear
7:15 PM 46.8 °F - 27.5 °F 47% 30.35 in 10.0 mi South 12.7 mph - N/A   Clear
7:35 PM 45.5 °F 41.3 °F 27.9 °F 50% 30.36 in 10.0 mi SSW 8.1 mph - N/A   Clear
7:55 PM 44.6 °F 43.1 °F 27.9 °F 52% 30.37 in 10.0 mi SSW 3.5 mph - N/A   Clear
8:15 PM 42.8 °F 38.0 °F 28.0 °F 56% 30.38 in 10.0 mi South 8.1 mph - N/A   Clear
8:35 PM 42.1 °F 37.7 °F 27.7 °F 57% 30.38 in 10.0 mi SSW 6.9 mph - N/A   Clear
8:55 PM 39.7 °F - 27.3 °F 61% 30.38 in 10.0 mi Calm Calm - N/A   Clear
9:15 PM 36.1 °F - 26.6 °F 68% 30.39 in 10.0 mi Calm Calm - N/A   Clear
9:35 PM 35.8 °F - 27.1 °F 71% 30.40 in 10.0 mi Calm Calm - N/A   Clear
9:55 PM 33.6 °F - 26.8 °F 76% 30.40 in 10.0 mi Calm Calm - N/A   Mostly Cloudy
10:15 PM 35.1 °F - 27.7 °F 74% 30.41 in 10.0 mi Calm Calm - N/A   Scattered Clouds
10:35 PM 35.1 °F 31.0 °F 28.4 °F 77% 30.41 in 10.0 mi NE 4.6 mph - N/A   Scattered Clouds
10:55 PM 35.6 °F 31.7 °F 28.9 °F 77% 30.40 in 10.0 mi NE 4.6 mph - N/A   Mostly Cloudy
11:15 PM 32.9 °F - 28.2 °F 83% 30.40 in 10.0 mi Calm Calm - N/A   Scattered Clouds
11:35 PM 32.0 °F - 27.5 °F 83% 30.40 in 10.0 mi Calm Calm - N/A   Scattered Clouds
11:55 PM 32.0 °F - 27.5 °F 83% 30.41 in 10.0 mi Calm Calm - N/A   Scattered Clouds